Weather History for Redmond, OR

Change the Weather History Date:

Friday, August 16, 2013

  Actual Average Record
Temperature  
Mean Temperature 72 °F 65 °F  
Max Temperature 90 °F 85 °F 106 °F (2008)
Min Temperature 54 °F 45 °F 35 °F (1960)
Degree Days  
Heating Degree Days 0 2  
Month to date heating degree days 11 29  
Since 1 June heating degree days 216 315  
Since 1 July heating degree days 31 98  
Cooling Degree Days 7 3  
Month to date cooling degree days 59 54  
Year to date cooling degree days 274 180  
Since 1 June cooling degree days 265 175  
Growing Degree Days 19 (Base 50)    
Moisture  
Dew Point 53 °F    
Average Humidity 56    
Maximum Humidity 83    
Minimum Humidity 29    
Precipitation  
Precipitation 0.07 in 0.02 in 0.59 in (1968)
Month to date precipitation 0.10 0.26  
Year to date precipitation 2.02 5.49  
Sea Level Pressure  
Sea Level Pressure 29.98 in    
Wind  
Wind Speed 5 mph (NW)    
Max Wind Speed 22 mph    
Max Gust Speed 29 mph    
Visibility 10 miles    
Events Rain , Thunderstorm    
T = Trace of Precipitation, MM = Missing Value Source: NWS Daily Summary

Daily Weather History Graph

Daily Weather History Graph

Search for Another Location

Airport:

Trip Planner

Search our weather history database for the weather conditions in past years. The results will help you decide how hot, cold, wet, or windy it might be!

Date:

Astronomy

Aug. 16, 2013 Rise Set
Actual Time 6:09 AM PDT 8:07 PM PDT
Civil Twilight 5:38 AM PDT 8:38 PM PDT
Nautical Twilight 4:59 AM PDT 9:16 PM PDT
Astronomical Twilight 4:17 AM PDT 9:58 PM PDT
Moon 4:35 PM PDT (8/16) 1:12 AM PDT (8/16)
Length of Visible Light 15h 00m
Length of Day
13h 57m
Waxing Gibbous, 76% of the Moon is Illuminated
Aug 16
Waxing Gibbous
Aug 20
Full
Aug 28
Last Quarter
Sep 5
New
Sep 12
First Quarter

Hourly Weather History & Observations

Time (PDT) Temp. Heat Index Dew Point Humidity Pressure Visibility Wind Dir Wind Speed Gust Speed Precip Events Conditions
12:56 AM 63.0 °F - 51.1 °F 65% 29.96 in 10.0 mi West 3.5 mph - N/A   Clear
1:56 AM 63.0 °F - 52.0 °F 67% 29.95 in 10.0 mi West 4.6 mph - N/A   Clear
2:56 AM 60.1 °F - 52.0 °F 75% 29.96 in 10.0 mi SW 3.5 mph - N/A   Clear
3:56 AM 55.9 °F - 50.0 °F 80% 29.96 in 10.0 mi SSE 3.5 mph - N/A   Clear
4:56 AM 55.0 °F - 48.9 °F 80% 29.97 in 10.0 mi SSE 3.5 mph - N/A   Partly Cloudy
5:56 AM 54.0 °F - 48.0 °F 80% 29.98 in 10.0 mi SE 4.6 mph - N/A   Clear
6:56 AM 57.0 °F - 48.9 °F 74% 29.99 in 10.0 mi SSE 4.6 mph - N/A   Scattered Clouds
7:56 AM 63.0 °F - 50.0 °F 63% 30.00 in 10.0 mi SSE 3.5 mph - N/A   Overcast
8:56 AM 68.0 °F - 51.1 °F 55% 30.00 in 10.0 mi Calm Calm - N/A   Mostly Cloudy
9:56 AM 73.0 °F - 52.0 °F 48% 29.99 in 10.0 mi Calm Calm - N/A   Clear
10:56 AM 78.1 °F - 52.0 °F 40% 29.97 in 10.0 mi Variable 3.5 mph - N/A   Partly Cloudy
11:56 AM 82.0 °F - 50.0 °F 33% 29.96 in 10.0 mi Variable 3.5 mph - N/A   Clear
12:56 PM 84.0 °F - 48.0 °F 28% 29.93 in 10.0 mi Calm Calm - N/A   Clear
1:56 PM 81.0 °F 80.5 °F 54.0 °F 39% 29.94 in 10.0 mi NW 19.6 mph 27.6 mph N/A   Scattered Clouds
2:56 PM 84.0 °F - 50.0 °F 31% 29.94 in 10.0 mi NW 12.7 mph - N/A   Mostly Cloudy
3:56 PM 82.0 °F - 52.0 °F 35% 29.95 in 10.0 mi NNW 10.4 mph - N/A   Partly Cloudy
4:56 PM 84.0 °F - 52.0 °F 33% 29.94 in 10.0 mi NNW 11.5 mph - N/A   Clear
5:31 PM 75.2 °F - 57.2 °F 53% 30.01 in 4.0 mi NW 10.4 mph - 0.03 in Rain , Thunderstorm Thunderstorms and Rain
5:56 PM 75.9 °F - 62.1 °F 62% 29.96 in 10.0 mi NW 5.8 mph - 0.06 in Rain , Thunderstorm Light Thunderstorms and Rain
6:27 PM 78.8 °F - 59.0 °F 51% 30.02 in 10.0 mi WNW 13.8 mph 18.4 mph 0.00 in   Clear
6:56 PM 75.0 °F - 59.0 °F 57% 29.97 in 10.0 mi NE 8.1 mph - 0.01 in Rain Light Rain
7:56 PM 71.1 °F - 59.0 °F 66% 29.99 in 10.0 mi NNE 5.8 mph - 0.00 in   Partly Cloudy
8:56 PM 68.0 °F - 57.9 °F 70% 30.01 in 10.0 mi North 3.5 mph - N/A   Clear
9:56 PM 68.0 °F - 55.0 °F 63% 30.01 in 10.0 mi Calm Calm - N/A   Clear
10:56 PM 66.9 °F - 55.0 °F 66% 30.01 in 10.0 mi NNW 5.8 mph - N/A   Clear
11:56 PM 64.9 °F - 55.9 °F 73% 30.01 in 10.0 mi NW 4.6 mph - N/A   Clear